"Pseudo-MPEC" for TF26D27

Created 2026 Apr 16 23:35:11 UT using Find_Orb

Click here for an explanation of pseudo-MPECs

 
 Astrometry: 
     TF26D27* C2026 04 09.33774414 32 19.791+05 30 31.22   ~498Z 20.34GVNEOCPU74
     TF26D27  C2026 04 09.34101814 32 19.056+05 30 31.11   ~498Z 20.34GVNEOCPU74

Station data:
(U74) JPL SynTrack Robotic Telescope 2, Auberry  (N37.070341 W119.412800)
   US/California.  Observers N. Saini, C. Zhai, R. Trahan, M. Zhan, M. Shao.
   0.36-m f/2.2 Schmidt.

Orbital elements:  TF26D27
   Perihelion 2026 Jan 17.133116 +/- 136 TT =  3:11:41.1 (JD 2461057.633116)
Epoch 2026 Apr  9.0 TT = JDT 2461139.5   Earth MOID: 0.1876   Ju: 0.2269
M  14.285069268 +/- 80              (J2000 ecliptic)             AutoNEOCP
n   0.174491424 +/- 0.263           Peri.   18.598440 +/- 60
a   3.171660237 +/- 3.19            Node    60.207250 +/- 41
e   0.86449263 +/- 0.221            Incl.   12.725060 +/- 41
P   5.64846                H 19.80  G  0.15   U 11.9  SR
q 0.429783322 +/- 0.55    Q 5.913537151 +/- 18.8
From 2 observations 2026 Apr. 9 (4.7 min); mean residual 0".00
Residuals in arcseconds: 
260409 U74  .00   .00     260409 U74  .00   .00     

Ephemerides (geocentric):
Date (UTC) HH   RA             Dec           delta  r     elong  mag " sig PA
---- --------  ------------   ------------  ------ ------ -----  --- --------
2026 04 17 00  14 06 52.884   +05 17 04.81  .70974 1.6951 162.9 20.8  35d  94
2026 04 17 01  14 06 45.471   +05 16 57.66  .71025 1.6956 163.0 20.8  35d  94
2026 04 17 02  14 06 38.068   +05 16 50.48  .71076 1.6962 163.0 20.9  35d  94
2026 04 17 03  14 06 30.675   +05 16 43.28  .71127 1.6967 163.0 20.9  35d  94
2026 04 17 04  14 06 23.291   +05 16 36.05  .71178 1.6973 163.0 20.9  35d  94
2026 04 17 05  14 06 15.918   +05 16 28.80  .71229 1.6978 163.0 20.9  36d  94
2026 04 17 06  14 06 08.553   +05 16 21.51  .71280 1.6984 163.0 20.9  36d  94
2026 04 17 07  14 06 01.199   +05 16 14.21  .71331 1.6989 163.1 20.9  36d  94
2026 04 17 08  14 05 53.854   +05 16 06.87  .71382 1.6995 163.1 20.9  36d  94
2026 04 17 09  14 05 46.519   +05 15 59.51  .71434 1.7000 163.1 20.9  36d  94
2026 04 17 10  14 05 39.194   +05 15 52.12  .71485 1.7005 163.1 20.9  36d  94
2026 04 17 11  14 05 31.878   +05 15 44.70  .71537 1.7011 163.1 20.9  36d  94
2026 04 17 12  14 05 24.572   +05 15 37.26  .71588 1.7016 163.1 20.9  36d  94
2026 04 17 13  14 05 17.276   +05 15 29.79  .71640 1.7022 163.1 20.9  36d  94
2026 04 17 14  14 05 09.990   +05 15 22.30  .71691 1.7027 163.2 20.9  36d  94
2026 04 17 15  14 05 02.713   +05 15 14.78  .71743 1.7033 163.2 20.9  36d  94
2026 04 17 16  14 04 55.446   +05 15 07.23  .71794 1.7038 163.2 20.9  36d  94
2026 04 17 17  14 04 48.189   +05 14 59.66  .71846 1.7044 163.2 20.9  37d  94
2026 04 17 18  14 04 40.941   +05 14 52.06  .71898 1.7049 163.2 20.9  37d  94
2026 04 17 19  14 04 33.703   +05 14 44.43  .71950 1.7055 163.2 20.9  37d  94
2026 04 17 20  14 04 26.475   +05 14 36.78  .72002 1.7060 163.2 20.9  37d  94
2026 04 17 21  14 04 19.257   +05 14 29.10  .72053 1.7066 163.2 20.9  37d  94
2026 04 17 22  14 04 12.048   +05 14 21.40  .72105 1.7071 163.3 20.9  37d  94
2026 04 17 23  14 04 04.849   +05 14 13.67  .72157 1.7077 163.3 20.9  37d  94
2026 04 18 00  14 03 57.660   +05 14 05.91  .72210 1.7082 163.3 20.9  37d  94
2026 04 18 01  14 03 50.480   +05 13 58.13  .72262 1.7087 163.3 20.9  37d  94
2026 04 18 02  14 03 43.310   +05 13 50.32  .72314 1.7093 163.3 20.9  37d  94
2026 04 18 03  14 03 36.150   +05 13 42.49  .72366 1.7098 163.3 20.9  37d  94
2026 04 18 04  14 03 28.999   +05 13 34.63  .72418 1.7104 163.3 20.9  37d  94
2026 04 18 05  14 03 21.859   +05 13 26.74  .72471 1.7109 163.3 20.9  37d  94
2026 04 18 06  14 03 14.727   +05 13 18.83  .72523 1.7115 163.3 20.9  37d  94
2026 04 18 07  14 03 07.606   +05 13 10.90  .72576 1.7120 163.3 20.9  37d  94
2026 04 18 08  14 03 00.494   +05 13 02.94  .72628 1.7126 163.3 20.9  38d  94
2026 04 18 09  14 02 53.392   +05 12 54.95  .72681 1.7131 163.3 20.9  38d  94
2026 04 18 10  14 02 46.300   +05 12 46.93  .72733 1.7137 163.4 20.9  38d  94
2026 04 18 11  14 02 39.217   +05 12 38.90  .72786 1.7142 163.4 20.9  38d  94
2026 04 18 12  14 02 32.144   +05 12 30.83  .72839 1.7148 163.4 20.9  38d  94
2026 04 18 13  14 02 25.081   +05 12 22.74  .72891 1.7153 163.4 20.9  38d  94
2026 04 18 14  14 02 18.028   +05 12 14.63  .72944 1.7158 163.4 20.9  38d  94
2026 04 18 15  14 02 10.984   +05 12 06.49  .72997 1.7164 163.4 20.9  38d  94
2026 04 18 16  14 02 03.950   +05 11 58.32  .73050 1.7169 163.4 20.9  38d  94
2026 04 18 17  14 01 56.925   +05 11 50.13  .73103 1.7175 163.4 20.9  38d  94
2026 04 18 18  14 01 49.910   +05 11 41.92  .73156 1.7180 163.4 20.9  38d  94
2026 04 18 19  14 01 42.905   +05 11 33.68  .73209 1.7186 163.4 20.9  38d  94
2026 04 18 20  14 01 35.910   +05 11 25.41  .73262 1.7191 163.4 20.9  38d  94
2026 04 18 21  14 01 28.924   +05 11 17.12  .73315 1.7197 163.4 20.9  38d  94
2026 04 18 22  14 01 21.948   +05 11 08.80  .73368 1.7202 163.4 20.9  38d  94
2026 04 18 23  14 01 14.981   +05 11 00.46  .73422 1.7207 163.4 20.9  38d  94